Regional Weather Roundup
Issued by NWS Wakefield, VA

Home | Current Version | Previous Version | Text Only | Print | Product List | Glossary On
Versions: 1 2 3 4 5 6 7 8 9 10 11 12 13 14 15 16 17 18 19 20 21 22 23 24 25 26 27 28 29 30 31 32 33 34 35 36 37 38 39 40 41 42 43 44 45 46 47 48 49 50
000
ASUS41 KAKQ 010410
RWRAKQ

REGIONAL WEATHER ROUNDUP
NATIONAL WEATHER SERVICE WAKEFIELD VA
1100 PM EST SAT JAN 31 2015

Note: "fair" indicates few or no clouds below 12,000 feet with no
significant weather and/or obstructions to visibility. * = Denotes
station may not report precipitation (e.g., rain,snow,etc.),
thunder or fog.

VAZ042-051-052>054-056-010500-
NORTHERN VIRGINIA

CITY           SKY/WX    TMP DP  RH WIND       PRES   REMARKS
WASH NATIONAL  PTCLDY    29  14  53 CALM      30.28F
DULLES         PTCLDY    21  13  71 CALM      30.26S
FORT BELVOIR   CLEAR     21  14  75 NW1       30.29S
QUANTICO       CLEAR     23  15  71 NW7       30.29F
FREDERICKSBRG* FAIR      24  13  64 CALM      30.27S
STAFFORD*      PTCLDY    20  11  68 CALM      30.31S
WARRENTON      CLEAR     19  19 100 CALM      30.25F
CULPEPER*      PTCLDY    19  14  79 CALM      30.26S
MANASSAS*      PTCLDY    19  18  93 CALM      30.27F
LEESBURG*      CLEAR     21  18  86 CALM      30.27S
WINCHESTER     CLEAR     25   9  50 CALM      30.23S
FRONT ROYAL*   FAIR      23  14  68 CALM      30.23S
LURAY*         FAIR      25  18  74 CALM      30.22S
$$

VAZ048-049-060>072-079>083-010500-
CENTRAL AND SOUTH CENTRAL VIRGINIA

CITY           SKY/WX    TMP DP  RH WIND       PRES   REMARKS
RICHMOND       FAIR      27  14  58 CALM      30.26S
CHESTERFIELD*  FAIR      25   7  46 CALM      30.27S
PETERSBURG*    CLEAR     24  18  77 CALM      30.27F
HANOVER        PTCLDY    23  13  65 CALM      30.27F
TAPPAHANNOCK*  PTCLDY    23  10  57 CALM      30.28F
QUINTON*       FAIR      24  14  66 CALM      30.27S
CHARLOTTSVILLE MOCLDY    26  10  50 CALM      30.23F
GORDONSVILLE*  FAIR      22  15  75 CALM      30.24S
ORANGE*        MOCLDY    25  18  74 CALM      30.26S
LOUISA*        MOCLDY    27  10  50 CALM      30.23S
BUMPASS*       FAIR      25   9  49 CALM      30.25S
FARMVILLE*     PTCLDY    31   7  36 SW5       30.25S
CREWE*         FAIR      34   7  32 CALM      30.25S
FORT PICKETT*  FAIR      27  12  53 SW6       30.25S
CHASE CITY*    FAIR      30  16  55 CALM      30.26F
CLARKSVILLE*   FAIR      32  12  43 CALM      30.26S
SOUTH HILL*    PTCLDY    26  17  68 SW3       30.33S
LAWRENCEVILLE* FAIR      29  13  50 CALM      30.27S
EMPORIA*       FAIR      21  18  86 CALM      30.30S
$$

VAZ088>098-010500-
SOUTHEAST VIRGINIA

CITY           SKY/WX    TMP DP  RH WIND       PRES   REMARKS
NORFOLK        CLEAR     28  13  53 CALM      30.28F
VIRGINIA BEACH CLEAR     27  14  58 CALM      30.28F
NORFOLK NAVAL  CLEAR     30  17  58 CALM      30.30S
WEST POINT*    CLEAR     23  16  73 CALM      30.29F
SALUDA*        FAIR      23  14  70 SE3       30.28F
NEWPORT NEWS   CLEAR     26  17  68 CALM      30.28F
LANGLEY AFB    CLEAR     26  20  77 CALM      30.28F
FORT EUSTIS    CLEAR     25  18  72 SE2       30.26F
WILLIAMSBURG*    N/A     27  21  80 S3        30.29S
HR EXEC AP*    FAIR      19  14  79 CALM      30.31S
FRANKLIN*      CLEAR     23  18  80 CALM      30.29F
WAKEFIELD      CLEAR     25  17  72 CALM      30.28F
$$

VAZ020-022-025-037-045-010500-
WEST CENTRAL AND SOUTHWEST VIRGINIA

CITY           SKY/WX    TMP DP  RH WIND       PRES   REMARKS
STAUNTON*      MOCLDY    25  15  66 CALM      30.23S
WAYNESBORO*    FAIR      33   2  27 SW7       30.20F
HOT SPRINGS VA FAIR      26   4  39 W16G25    30.09S WCI  13
LYNCHBURG      PTCLDY    31   7  36 CALM      30.25F
DANVILLE       PTCLDY    30  13  49 SW3       30.27S
SOUTH BOSTON*  FAIR      27  13  56 CALM      30.27S
MARTINSVILLE   MOCLDY    30  18  61 CALM      30.27S
ROANOKE        MOCLDY    35   8  32 W6        30.26F
BLACKSBURG     PTCLDY    30  12  47 CALM      30.24S
DUBLIN*        MOCLDY    32  18  56 SW3       30.24S
MARION*        CLOUDY    34  10  37 W14       30.24S WCI  25
HILLSVILLE*    CLOUDY    32   8  37 SW3       30.21S
RICHLANDS*     FAIR      33  10  38 CALM      30.21F
WISE*          CLOUDY    32  12  43 S3        30.22F
ABINGDON*      CLOUDY    34  17  50 CALM      30.25S
$$

MDZ021>025-VAZ099-100-010500-
SOUTHERN MARYLAND AND THE DELMARVA PENINSULA

CITY           SKY/WX    TMP DP  RH WIND       PRES   REMARKS
PATUXENT RIVER CLEAR     21  10  62 CALM      30.28S
BAY BRIDGE APT   N/A     25  18  74 CALM      30.29R
LEONARDTOWN    CLEAR     21  10  63 CALM      30.29S
DOVER          CLEAR     21  13  71 SW5       30.27S
GEORGETOWN     CLEAR     20  11  68 CALM      30.28F
EASTON         FAIR      23  17  78 CALM      30.31S
CAMBRIDGE      CLEAR     23  18  80 CALM      30.28S
SALISBURY      CLEAR     20  12  71 CALM      30.28F
OCEAN CITY     CLEAR     19  13  77 NW3       30.29S
WALLOPS ISLAND CLEAR     20  11  68 CALM      30.30S
ACCOMACK*      CLEAR     23  14  68 NE3       30.29R
$$

NCZ012>017-030>032-010500-
NORTH CENTRAL AND EASTERN NORTH CAROLINA

CITY           SKY/WX    TMP DP  RH WIND       PRES   REMARKS
ROANOKE RAPIDS FAIR      30  19  64 CALM      30.29S
RALEIGH        FAIR      34  14  43 CALM      30.28F
ELIZABETH CITY CLEAR     28  20  71 S3        30.31S
AHOSKIE*       PTCLDY    26  18  71 CALM      30.31S
EDENTON*       CLEAR     31  23  70 SW5       30.31S
CURRITUCK*     CLEAR     28  20  74 CALM      30.30F
KILL DEVIL HLS CLEAR     32  24  70 SW3       30.30S
MANTEO         CLEAR     34  21  60 SW6       30.31F
CAPE HATTERAS  CLEAR     28  24  85 W6        30.33S
TARBORO*       FAIR      27  25  91 CALM      30.32S
GOLDSBORO      CLEAR     36  16  43 CALM      30.30S
WASHINGTON     CLEAR     29  20  68 CALM      30.32S
GREENVILLE     CLEAR     32  23  69 CALM      30.32S
NEW BERN       CLEAR     28  21  75 S3        30.34F
WILMINGTON     PTCLDY    33  27  78 CALM      30.34S
$$

VAZ048-010500-
ELSEWHERE

CITY           SKY/WX    TMP DP  RH WIND       PRES   REMARKS
HARRISBURG PA  CLEAR     11   6  81 CALM      30.24S
BALTIMORE      PTCLDY    20  11  68 CALM      30.27R
ANNAPOLIS      CLEAR     24  14  65 CALM      30.28S
ANDREWS AFB    CLEAR     21  14  74 CALM      30.26S
PHILADELPHIA   CLEAR     22   8  55 W9        30.26S
HENDERSON NC   FAIR      29  15  55 CALM      30.27F
GREENSBORO     MOCLDY    37  14  38 SW7       30.25S
ROCKY MOUNT    CLEAR     28  20  71 CALM      30.30F
$$

VAZ100-010500-
MARINE

STATION/POSITION TIME  TEMP    WIND        PRES    WAVE   SWELL
                       AIR SEA DIR/SP/G            HT/PER HT/PER
                 (UTC) (F)     (DEG/KT/KT) (MB)    (FT/S) (FT/S)
BRANDYWINE LGT   0400   29 35  300/ 12/ 14 1025.2S
CAPE MAY NJ      0400   29 32              1024.6F
LEWES DE         0400   25 35  230/  5/  6 1025.2F
15NM E FENWICK I 0400   31 39              1025.1S   3/ 5
OCEAN-CITY-INLET 0400   27 35  310/  3/  4 1025.1S
WACHAPREAGUE VA  0400   24 34  340/  2/  2 1025.6R
THOMAS POINT MD  0400   30 34  260/  3/  3 1026.5R
GOOSES REEF MD   0400   31 34  VRB  2/  4  1024.5R   0
COVE POINT MD    0400   30      CALM  /  2 1025.2S
SOLOMONS ISLAND  0400      36                N/A
BISHOPS HEAD MD  0400   31 31     CALM     1024.9F
PINEY POINT MD   0400          100/  3/  4   N/A
POTOMAC MD       0400   32 35  190/  2/  2 1024.5S   0
CAMBRIDGE MD     0400   26 33   CALM  /  2 1025.3S
LEWISETTA VA     0400   26 33     CALM     1025.4R
RAPPAHANNOCK LGT 0400          100/  4/  5 1026.1R
STINGRAY PT      0400   35 36  120/  4/  6 1025.9S   0
YORK RVR RNG VA  0400   35     180/  5/  5 1024.7F
YORKTOWN VA      0400   30 38  160/  2/  2 1025.0F
JAMESTOWN VA     0400   29 39  130/  2/  2   N/A     0
DOMINION TERM VA 0400   35     200/  4/  5 1025.5S
KIPTOPEKE VA     0400      41  110/  3/  3   N/A
CHES BAY BRIDGE  0400   35 39  170/  6/  7 1025.1F
CAPE HENRY VA    0400   34     190/  8/ 10 1024.3R
CHESAPEAKE LGHT  0300   37     260/  4/  5 1026.4F
WILLOUBY STN VA  0400   34     170/  6/  7 1025.8S
S CRANEY ISL VA  0400          180/  4/  5 1025.5S
CAPE HENRY BUOY  0300      41                N/A     2/ 8
1ST LANDING BUOY 0400   35 38  190/  4/  6 1025.2S   1
CAPE CHARLES BUO 0400      40                N/A     2/ 8   2/ 8
OFFSHORE WE BUOY 0400      43                N/A     3/ 7   3/ 7
64NM E OF VA BCH 0400   40 48  290/ 12/ 14 1025.4F   6/ 8   5/ 8
DUCK PIER NC     0400   36 40  220/  6/  9 1025.1F
44100 DUCK FRF   0400      43                N/A     4/ 8
44056 DUCK FRF   0400      41                N/A     3/ 8
OREGON INLET NC  0400   36 39  210/  5/  6 1026.5S
HATTERAS NC      0400   38 42  250/  5/  6 1027.4R



USA.gov is the U.S. government's official web portal to all federal, state and local government web resources and services.